N377WE KRDU-KILM

Flight info

Callsign N377WE
Flight time 0h 39m
Altitude 11000
Route ROZBO5 ROZBO
Aircraft B60T/L-SDFGRY/C

Departure

Time 2026-05-07 00:43
Airport Raleigh-Durham International Airport (KRDU)

Arrival

Time 2026-05-07 01:23
Airport Wilmington International Airport (KILM)
Time Latitude Longitude Altitude Speed Heading
2026-05-07 00:20 35.87878 -78.78374 421 ft 0 kts 225°
2026-05-07 00:39 35.87877 -78.78374 427 ft 0 kts 225°
2026-05-07 00:39 35.87856 -78.78400 426 ft 11 kts 230°
2026-05-07 00:40 35.87799 -78.78455 424 ft 13 kts 203°
2026-05-07 00:40 35.87782 -78.78399 420 ft 13 kts 49°
2026-05-07 00:40 35.87851 -78.78316 419 ft 15 kts 45°
2026-05-07 00:40 35.87922 -78.78229 423 ft 15 kts 46°
2026-05-07 00:41 35.87983 -78.78160 420 ft 10 kts 44°
2026-05-07 00:41 35.88038 -78.78087 422 ft 12 kts 47°
2026-05-07 00:41 35.88049 -78.78072 426 ft 1 kts 51°
2026-05-07 00:41 35.88038 -78.78059 424 ft 5 kts 188°
2026-05-07 00:42 35.87993 -78.78055 423 ft 7 kts 140°
2026-05-07 00:42 35.87971 -78.78032 425 ft 0 kts 137°
2026-05-07 00:42 35.87946 -78.78005 425 ft 14 kts 144°
2026-05-07 00:43 35.87834 -78.78060 420 ft 33 kts 221°
2026-05-07 00:43 35.87504 -78.78454 420 ft 102 kts 226°
2026-05-07 00:43 35.86908 -78.79196 613 ft 131 kts 223°
2026-05-07 00:43 35.86239 -78.79934 1112 ft 128 kts 221°
2026-05-07 00:44 35.85541 -78.80641 1506 ft 128 kts 220°
2026-05-07 00:44 35.84845 -78.81227 2040 ft 120 kts 213°
2026-05-07 00:44 35.84084 -78.81690 2416 ft 124 kts 208°
2026-05-07 00:44 35.83263 -78.82037 2811 ft 125 kts 204°
2026-05-07 00:45 35.82378 -78.82357 2971 ft 136 kts 201°
2026-05-07 00:45 35.81475 -78.82643 3319 ft 132 kts 200°
2026-05-07 00:45 35.80569 -78.82874 3637 ft 137 kts 191°
2026-05-07 00:45 35.79597 -78.82648 3960 ft 147 kts 171°
2026-05-07 00:46 35.78599 -78.82185 4327 ft 158 kts 169°
2026-05-07 00:46 35.77548 -78.81689 4735 ft 164 kts 169°
2026-05-07 00:46 35.76469 -78.81200 5146 ft 167 kts 171°
2026-05-07 00:46 35.75365 -78.80714 5563 ft 169 kts 171°
2026-05-07 00:47 35.74246 -78.80234 5944 ft 172 kts 172°
2026-05-07 00:47 35.73110 -78.79750 6324 ft 174 kts 172°
2026-05-07 00:47 35.71961 -78.79264 6704 ft 175 kts 172°
2026-05-07 00:47 35.70806 -78.78778 7077 ft 176 kts 172°
2026-05-07 00:48 35.69649 -78.78290 7462 ft 176 kts 173°
2026-05-07 00:48 35.68496 -78.77804 7852 ft 176 kts 173°
2026-05-07 00:48 35.67326 -78.77311 8245 ft 179 kts 172°
2026-05-07 00:48 35.66139 -78.76815 8681 ft 181 kts 172°
2026-05-07 00:49 35.64938 -78.76314 9132 ft 183 kts 172°
2026-05-07 00:49 35.63728 -78.75806 9590 ft 184 kts 172°
2026-05-07 00:49 35.62515 -78.75296 10027 ft 185 kts 172°
2026-05-07 00:49 35.61297 -78.74784 10452 ft 185 kts 172°
2026-05-07 00:50 35.60078 -78.74273 10866 ft 185 kts 173°
2026-05-07 00:50 35.58793 -78.73746 10965 ft 204 kts 172°
2026-05-07 00:50 35.57391 -78.73177 10988 ft 220 kts 171°
2026-05-07 00:50 35.55905 -78.72561 10996 ft 230 kts 170°
2026-05-07 00:51 35.54370 -78.71918 10994 ft 236 kts 170°
2026-05-07 00:51 35.52805 -78.71258 10993 ft 239 kts 170°
2026-05-07 00:51 35.51211 -78.70707 10997 ft 237 kts 177°
2026-05-07 00:51 35.49594 -78.70391 11002 ft 235 kts 182°
2026-05-07 00:52 35.47971 -78.70159 11003 ft 235 kts 182°
2026-05-07 00:52 35.46348 -78.69937 11004 ft 235 kts 182°
2026-05-07 00:52 35.44719 -78.69711 11005 ft 236 kts 182°
2026-05-07 00:52 35.43087 -78.69483 11004 ft 236 kts 182°
2026-05-07 00:53 35.41455 -78.69251 11000 ft 236 kts 182°
2026-05-07 00:53 35.39824 -78.69017 10998 ft 236 kts 182°
2026-05-07 00:53 35.38196 -78.68774 11003 ft 236 kts 182°
2026-05-07 00:53 35.36568 -78.68540 11004 ft 236 kts 182°
2026-05-07 00:54 35.34939 -78.68311 11003 ft 236 kts 182°
2026-05-07 00:54 35.33302 -78.68081 11005 ft 237 kts 182°
2026-05-07 00:54 35.31663 -78.67849 11006 ft 237 kts 182°
2026-05-07 00:54 35.30030 -78.67616 11002 ft 236 kts 182°
2026-05-07 00:55 35.28396 -78.67382 11001 ft 236 kts 182°
2026-05-07 00:55 35.26760 -78.67148 11001 ft 236 kts 182°
2026-05-07 00:55 35.25129 -78.66916 10999 ft 236 kts 182°
2026-05-07 00:55 35.23497 -78.66684 10997 ft 236 kts 182°
2026-05-07 00:56 35.21868 -78.66451 10987 ft 236 kts 182°
2026-05-07 00:56 35.20231 -78.66218 10990 ft 237 kts 182°
2026-05-07 00:56 35.18589 -78.65985 10992 ft 238 kts 182°
2026-05-07 00:56 35.16944 -78.65751 10991 ft 238 kts 182°
2026-05-07 00:57 35.15295 -78.65516 10984 ft 239 kts 182°
2026-05-07 00:57 35.13647 -78.65282 10984 ft 239 kts 182°
2026-05-07 00:57 35.11999 -78.65047 10986 ft 238 kts 182°
2026-05-07 00:57 35.10354 -78.64812 10992 ft 239 kts 182°
2026-05-07 00:58 35.08698 -78.64578 10995 ft 239 kts 182°
2026-05-07 00:58 35.07045 -78.64343 10995 ft 239 kts 182°
2026-05-07 00:58 35.05396 -78.64109 10994 ft 239 kts 182°
2026-05-07 00:58 35.03744 -78.63874 10993 ft 239 kts 182°
2026-05-07 00:59 35.00995 -78.63484 11001 ft 239 kts 182°
2026-05-07 00:59 34.99341 -78.63250 11003 ft 239 kts 182°
2026-05-07 00:59 34.97685 -78.63016 11003 ft 240 kts 182°
2026-05-07 01:00 34.95520 -78.62349 10987 ft 250 kts 161°
2026-05-07 01:00 34.94542 -78.61520 10994 ft 259 kts 142°
2026-05-07 01:00 34.93301 -78.59915 11002 ft 260 kts 141°
2026-05-07 01:00 34.91810 -78.57616 11012 ft 266 kts 124°
2026-05-07 01:01 34.91193 -78.56289 11015 ft 267 kts 122°
2026-05-07 01:01 34.90311 -78.54293 11017 ft 268 kts 121°
2026-05-07 01:01 34.89443 -78.52284 11003 ft 269 kts 121°
2026-05-07 01:01 34.88579 -78.50261 10994 ft 269 kts 121°
2026-05-07 01:02 34.87718 -78.48237 10988 ft 269 kts 121°
2026-05-07 01:02 34.86862 -78.46218 10986 ft 269 kts 121°
2026-05-07 01:02 34.86006 -78.44195 10985 ft 268 kts 121°
2026-05-07 01:02 34.85153 -78.42176 10985 ft 268 kts 121°
2026-05-07 01:03 34.84302 -78.40156 10984 ft 268 kts 121°
2026-05-07 01:03 34.83454 -78.38141 10985 ft 268 kts 121°
2026-05-07 01:03 34.82607 -78.36128 10984 ft 268 kts 121°
2026-05-07 01:03 34.81755 -78.34103 10984 ft 268 kts 120°
2026-05-07 01:04 34.80907 -78.32087 10979 ft 268 kts 120°
2026-05-07 01:04 34.80060 -78.30075 10981 ft 268 kts 120°
2026-05-07 01:04 34.79208 -78.28051 10979 ft 268 kts 120°
2026-05-07 01:04 34.78371 -78.26059 10978 ft 268 kts 120°
2026-05-07 01:05 34.77523 -78.24042 10985 ft 268 kts 120°
2026-05-07 01:05 34.76664 -78.22000 10851 ft 272 kts 120°
2026-05-07 01:05 34.75846 -78.20043 10681 ft 248 kts 120°
2026-05-07 01:05 34.75094 -78.18220 10478 ft 235 kts 120°
2026-05-07 01:06 34.74372 -78.16467 10256 ft 230 kts 120°
2026-05-07 01:06 34.73663 -78.14740 10040 ft 227 kts 120°
2026-05-07 01:06 34.72963 -78.13036 9821 ft 224 kts 120°
2026-05-07 01:06 34.72264 -78.11332 9595 ft 230 kts 120°
2026-05-07 01:07 34.71529 -78.09557 9392 ft 238 kts 120°
2026-05-07 01:07 34.70775 -78.07746 9217 ft 242 kts 120°
2026-05-07 01:07 34.70009 -78.05910 8976 ft 246 kts 120°
2026-05-07 01:07 34.69232 -78.04053 8714 ft 248 kts 120°
2026-05-07 01:08 34.68448 -78.02183 8456 ft 248 kts 120°
2026-05-07 01:08 34.67669 -78.00317 8227 ft 247 kts 120°
2026-05-07 01:08 34.66899 -77.98471 7835 ft 236 kts 120°
2026-05-07 01:08 34.66209 -77.96790 7372 ft 213 kts 120°
2026-05-07 01:09 34.65579 -77.95236 7041 ft 199 kts 120°
2026-05-07 01:09 34.64986 -77.93754 6718 ft 192 kts 120°
2026-05-07 01:09 34.64388 -77.92263 6400 ft 195 kts 120°
2026-05-07 01:09 34.63780 -77.90801 6102 ft 192 kts 124°
2026-05-07 01:10 34.62891 -77.89639 5702 ft 189 kts 146°
2026-05-07 01:10 34.61877 -77.88651 5231 ft 192 kts 149°
2026-05-07 01:10 34.60784 -77.87632 4585 ft 197 kts 149°
2026-05-07 01:10 34.59692 -77.86634 3933 ft 195 kts 150°
2026-05-07 01:11 34.58626 -77.85655 3291 ft 190 kts 150°
2026-05-07 01:11 34.57601 -77.84708 2690 ft 185 kts 150°
2026-05-07 01:11 34.56617 -77.83772 2320 ft 174 kts 150°
2026-05-07 01:11 34.55692 -77.82867 2156 ft 174 kts 150°
2026-05-07 01:12 34.54712 -77.81915 2085 ft 185 kts 150°
2026-05-07 01:12 34.53692 -77.80931 2048 ft 188 kts 150°
2026-05-07 01:12 34.52670 -77.79945 2004 ft 187 kts 150°
2026-05-07 01:12 34.51676 -77.78962 1989 ft 183 kts 150°
2026-05-07 01:13 34.50704 -77.77985 1989 ft 180 kts 150°
2026-05-07 01:13 34.49732 -77.77042 1997 ft 175 kts 159°
2026-05-07 01:13 34.48621 -77.76614 2006 ft 166 kts 176°
2026-05-07 01:13 34.47492 -77.76365 2005 ft 167 kts 179°
2026-05-07 01:14 34.46337 -77.76151 2001 ft 167 kts 179°
2026-05-07 01:14 34.45280 -77.75950 1995 ft 134 kts 180°
2026-05-07 01:14 34.44418 -77.75742 1990 ft 122 kts 180°
2026-05-07 01:14 34.43600 -77.75544 1990 ft 118 kts 181°
2026-05-07 01:15 34.42815 -77.75486 1987 ft 111 kts 194°
2026-05-07 01:15 34.42041 -77.75562 2005 ft 113 kts 193°
2026-05-07 01:15 34.41254 -77.75626 2008 ft 114 kts 192°
2026-05-07 01:15 34.40461 -77.75687 2008 ft 115 kts 192°
2026-05-07 01:16 34.39668 -77.75747 2007 ft 113 kts 192°
2026-05-07 01:16 34.38896 -77.75807 2001 ft 110 kts 194°
2026-05-07 01:16 34.38139 -77.75886 2004 ft 108 kts 198°
2026-05-07 01:16 34.37488 -77.76222 1993 ft 100 kts 225°
2026-05-07 01:17 34.36979 -77.76792 1998 ft 100 kts 225°
2026-05-07 01:17 34.36456 -77.77360 2000 ft 102 kts 224°
2026-05-07 01:17 34.35931 -77.77946 2009 ft 104 kts 224°
2026-05-07 01:17 34.35407 -77.78528 2013 ft 99 kts 225°
2026-05-07 01:18 34.34947 -77.79086 2009 ft 92 kts 227°
2026-05-07 01:18 34.34526 -77.79662 2009 ft 91 kts 228°
2026-05-07 01:18 34.34115 -77.80233 1878 ft 87 kts 230°
2026-05-07 01:18 34.33728 -77.80785 1769 ft 85 kts 230°
2026-05-07 01:19 34.33360 -77.81307 1661 ft 80 kts 227°
2026-05-07 01:19 34.32990 -77.81809 1561 ft 80 kts 226°
2026-05-07 01:19 34.32607 -77.82308 1446 ft 82 kts 227°
2026-05-07 01:19 34.32214 -77.82822 1342 ft 85 kts 229°
2026-05-07 01:20 34.31823 -77.83365 1233 ft 87 kts 229°
2026-05-07 01:20 34.31444 -77.83916 1109 ft 79 kts 227°
2026-05-07 01:20 34.31092 -77.84387 915 ft 78 kts 226°
2026-05-07 01:20 34.30714 -77.84919 799 ft 86 kts 231°
2026-05-07 01:21 34.30349 -77.85471 712 ft 84 kts 227°
2026-05-07 01:21 34.29941 -77.85998 625 ft 86 kts 223°
2026-05-07 01:21 34.29539 -77.86523 552 ft 85 kts 224°
2026-05-07 01:21 34.29146 -77.87049 476 ft 83 kts 228°
2026-05-07 01:22 34.28757 -77.87575 375 ft 86 kts 225°
2026-05-07 01:22 34.28368 -77.88109 273 ft 86 kts 225°
2026-05-07 01:22 34.27961 -77.88643 166 ft 87 kts 224°
2026-05-07 01:22 34.27567 -77.89170 51 ft 77 kts 224°
2026-05-07 01:23 34.27282 -77.89551 34 ft 47 kts 228°
2026-05-07 01:23 34.27044 -77.89858 37 ft 56 kts 233°
2026-05-07 01:23 34.26843 -77.90142 33 ft 30 kts 230°
2026-05-07 01:23 34.26716 -77.90317 32 ft 26 kts 225°
2026-05-07 01:24 34.26648 -77.90429 34 ft 14 kts 259°
2026-05-07 01:24 34.26708 -77.90495 34 ft 8 kts 350°
2026-05-07 01:24 34.26732 -77.90503 34 ft 10 kts 347°
2026-05-07 01:24 34.26761 -77.90512 35 ft 0 kts 348°
2026-05-07 01:25 34.26764 -77.90513 35 ft 4 kts 348°
2026-05-07 01:25 34.26843 -77.90543 35 ft 18 kts 340°
2026-05-07 01:25 34.26960 -77.90597 35 ft 16 kts 339°
2026-05-07 01:26 34.27052 -77.90638 35 ft 12 kts 340°
2026-05-07 01:26 34.27118 -77.90686 35 ft 11 kts 325°
2026-05-07 01:26 34.27187 -77.90738 35 ft 14 kts 334°
2026-05-07 01:26 34.27280 -77.90796 35 ft 16 kts 334°
2026-05-07 01:27 34.27381 -77.90865 35 ft 16 kts 329°
2026-05-07 01:27 34.27452 -77.90912 35 ft 4 kts 313°
2026-05-07 01:27 34.27457 -77.90942 35 ft 4 kts 270°
2026-05-07 01:27 34.27458 -77.90972 35 ft 2 kts 271°
2026-05-07 01:28 34.27456 -77.90981 35 ft 1 kts 216°
2026-05-07 01:28 34.27453 -77.90982 35 ft 0 kts 180°